Time,TemperatureF,DewpointF,PressureIn,WindDirection,WindDirectionDegrees,WindSpeedMPH,WindSpeedGustMPH,Humidity,HourlyPrecipIn,Conditions,Clouds,dailyrainin,SoftwareType,DateUTC
2013-08-12 04:00:00,61.0,-99.9,30.04,NNW,340,6.0,-999.0,-999,-99.99,,,-99.99,,2013-08-12 04:00:00,
2013-08-12 04:43:00,61.0,-99.9,30.04,NNW,340,6.0,-999.0,-999,-99.99,,,-99.99,,2013-08-12 04:43:00,
2013-08-12 04:52:00,61.0,-99.9,30.04,NNW,340,6.0,-999.0,-999,-99.99,,,-99.99,,2013-08-12 04:52:00,
2013-08-12 05:00:00,65.0,-99.9,30.02,NW,320,6.0,-999.0,-999,-99.99,,,-99.99,,2013-08-12 05:00:00,
2013-08-12 05:32:00,65.0,-99.9,30.02,NW,320,6.0,-999.0,-999,-99.99,,,-99.99,,2013-08-12 05:32:00,
2013-08-12 05:43:00,65.0,-99.9,30.02,NW,320,6.0,-999.0,-999,-99.99,,,-99.99,,2013-08-12 05:43:00,
2013-08-12 05:52:00,65.0,-99.9,30.02,NW,320,6.0,-999.0,-999,-99.99,,,-99.99,,2013-08-12 05:52:00,
2013-08-12 06:00:00,66.0,-99.9,30.04,NW,320,6.0,-999.0,-999,-99.99,,,-99.99,,2013-08-12 06:00:00,
2013-08-12 06:42:00,66.0,-99.9,30.04,NW,320,6.0,-999.0,-999,-99.99,,,-99.99,,2013-08-12 06:42:00,
2013-08-12 06:52:00,66.0,-99.9,30.04,NW,320,6.0,-999.0,-999,-99.99,,,-99.99,,2013-08-12 06:52:00,
2013-08-12 07:00:00,68.0,-99.9,30.04,WNW,300,6.0,-999.0,-999,-99.99,,,-99.99,,2013-08-12 07:00:00,
2013-08-12 07:43:00,68.0,-99.9,30.04,WNW,300,6.0,-999.0,-999,-99.99,,,-99.99,,2013-08-12 07:43:00,
2013-08-12 07:53:00,68.0,-99.9,30.04,WNW,300,6.0,-999.0,-999,-99.99,,,-99.99,,2013-08-12 07:53:00,
2013-08-12 08:00:00,66.0,-99.9,30.04,North,10,3.0,-999.0,-999,-99.99,,,-99.99,,2013-08-12 08:00:00,
2013-08-12 08:43:00,66.0,-99.9,30.04,North,10,3.0,-999.0,-999,-99.99,,,-99.99,,2013-08-12 08:43:00,
2013-08-12 08:53:00,66.0,-99.9,30.04,North,10,3.0,-999.0,-999,-99.99,,,-99.99,,2013-08-12 08:53:00,
2013-08-12 09:00:00,66.0,-99.9,30.03,NNW,340,1.0,-999.0,-999,-99.99,,,-99.99,,2013-08-12 09:00:00,
2013-08-12 09:32:00,66.0,-99.9,30.03,NNW,340,1.0,-999.0,-999,-99.99,,,-99.99,,2013-08-12 09:32:00,
2013-08-12 09:43:00,66.0,-99.9,30.03,NNW,340,1.0,-999.0,-999,-99.99,,,-99.99,,2013-08-12 09:43:00,
2013-08-12 09:53:00,66.0,-99.9,30.03,NNW,340,1.0,-999.0,-999,-99.99,,,-99.99,,2013-08-12 09:53:00,
2013-08-12 10:00:00,66.0,-99.9,30.02,WNW,300,1.0,-999.0,-999,-99.99,,,-99.99,,2013-08-12 10:00:00,
2013-08-12 10:32:00,66.0,-99.9,30.02,WNW,300,1.0,-999.0,-999,-99.99,,,-99.99,,2013-08-12 10:32:00,
2013-08-12 10:43:00,66.0,-99.9,30.02,WNW,300,1.0,-999.0,-999,-99.99,,,-99.99,,2013-08-12 10:43:00,
2013-08-12 10:52:00,66.0,-99.9,30.02,WNW,300,1.0,-999.0,-999,-99.99,,,-99.99,,2013-08-12 10:52:00,
2013-08-12 11:00:00,65.0,-99.9,30.02,NW,310,6.0,-999.0,-999,-99.99,,,-99.99,,2013-08-12 11:00:00,
2013-08-12 11:43:00,65.0,-99.9,30.02,NW,310,6.0,-999.0,-999,-99.99,,,-99.99,,2013-08-12 11:43:00,
2013-08-12 11:53:00,65.0,-99.9,30.02,NW,310,6.0,-999.0,-999,-99.99,,,-99.99,,2013-08-12 11:53:00,
2013-08-12 12:00:00,65.0,-99.9,30.03,West,280,5.0,-999.0,-999,-99.99,,,-99.99,,2013-08-12 12:00:00,
2013-08-12 12:43:00,65.0,-99.9,30.03,West,280,5.0,-999.0,-999,-99.99,,,-99.99,,2013-08-12 12:43:00,
2013-08-12 12:52:00,65.0,-99.9,30.03,West,280,5.0,-999.0,-999,-99.99,,,-99.99,,2013-08-12 12:52:00,
2013-08-12 13:00:00,67.0,-99.9,30.03,NW,320,16.0,-999.0,-999,-99.99,,,-99.99,,2013-08-12 13:00:00,
2013-08-12 13:33:00,67.0,-99.9,30.03,NW,320,16.0,-999.0,-999,-99.99,,,-99.99,,2013-08-12 13:33:00,
2013-08-12 13:43:00,67.0,-99.9,30.03,NW,320,16.0,-999.0,-999,-99.99,,,-99.99,,2013-08-12 13:43:00,
2013-08-12 13:53:00,67.0,-99.9,30.03,NW,320,16.0,-999.0,-999,-99.99,,,-99.99,,2013-08-12 13:53:00,
2013-08-12 14:00:00,70.0,-99.9,30.03,NW,310,13.0,-999.0,-999,-99.99,,,-99.99,,2013-08-12 14:00:00,
2013-08-12 14:42:00,70.0,-99.9,30.03,NW,310,13.0,-999.0,-999,-99.99,,,-99.99,,2013-08-12 14:42:00,
2013-08-12 14:53:00,70.0,-99.9,30.03,NW,310,13.0,-999.0,-999,-99.99,,,-99.99,,2013-08-12 14:53:00,
2013-08-12 15:00:00,71.0,-99.9,30.02,WNW,290,12.0,-999.0,-999,-99.99,,,-99.99,,2013-08-12 15:00:00,
2013-08-12 15:33:00,71.0,-99.9,30.02,WNW,290,12.0,-999.0,-999,-99.99,,,-99.99,,2013-08-12 15:33:00,
2013-08-12 15:43:00,71.0,-99.9,30.02,WNW,290,12.0,-999.0,-999,-99.99,,,-99.99,,2013-08-12 15:43:00,
2013-08-12 15:52:00,71.0,-99.9,30.02,WNW,290,12.0,-999.0,-999,-99.99,,,-99.99,,2013-08-12 15:52:00,
2013-08-12 16:00:00,71.0,-99.9,30.01,NW,320,18.0,-999.0,-999,-99.99,,,-99.99,,2013-08-12 16:00:00,
2013-08-12 16:33:00,71.0,-99.9,30.01,NW,320,18.0,-999.0,-999,-99.99,,,-99.99,,2013-08-12 16:33:00,
2013-08-12 16:43:00,71.0,-99.9,30.01,NW,320,18.0,-999.0,-999,-99.99,,,-99.99,,2013-08-12 16:43:00,
2013-08-12 16:53:00,71.0,-99.9,30.01,NW,320,18.0,-999.0,-999,-99.99,,,-99.99,,2013-08-12 16:53:00,
2013-08-12 17:00:00,69.0,-99.9,30.02,South,190,8.0,-999.0,-999,-99.99,,,-99.99,,2013-08-12 17:00:00,
2013-08-12 17:22:00,69.0,-99.9,30.02,South,190,8.0,-999.0,-999,-99.99,,,-99.99,,2013-08-12 17:22:00,
2013-08-12 17:32:00,69.0,-99.9,30.02,South,190,8.0,-999.0,-999,-99.99,,,-99.99,,2013-08-12 17:32:00,
2013-08-12 17:43:00,69.0,-99.9,30.02,South,190,8.0,-999.0,-999,-99.99,,,-99.99,,2013-08-12 17:43:00,
2013-08-12 17:52:00,69.0,-99.9,30.02,South,190,8.0,-999.0,-999,-99.99,,,-99.99,,2013-08-12 17:52:00,
2013-08-12 18:00:00,68.0,-99.9,30.03,NNE,20,2.0,-999.0,-999,-99.99,,,-99.99,,2013-08-12 18:00:00,
2013-08-12 18:32:00,68.0,-99.9,30.03,NNE,20,2.0,-999.0,-999,-99.99,,,-99.99,,2013-08-12 18:32:00,
2013-08-12 18:43:00,68.0,-99.9,30.03,NNE,20,2.0,-999.0,-999,-99.99,,,-99.99,,2013-08-12 18:43:00,
2013-08-12 18:52:00,68.0,-99.9,30.03,NNE,20,2.0,-999.0,-999,-99.99,,,-99.99,,2013-08-12 18:52:00,
2013-08-12 19:00:00,59.0,-99.9,30.03,ENE,70,21.0,-999.0,-999,-99.99,,,-99.99,,2013-08-12 19:00:00,
2013-08-12 19:33:00,59.0,-99.9,30.03,ENE,70,21.0,-999.0,-999,-99.99,,,-99.99,,2013-08-12 19:33:00,
2013-08-12 19:43:00,59.0,-99.9,30.03,ENE,70,21.0,-999.0,-999,-99.99,,,-99.99,,2013-08-12 19:43:00,
2013-08-12 19:52:00,59.0,-99.9,30.03,ENE,70,21.0,-999.0,-999,-99.99,,,-99.99,,2013-08-12 19:52:00,
2013-08-12 21:00:00,58.0,-99.9,30.07,ESE,110,18.0,-999.0,-999,-99.99,,,-99.99,,2013-08-12 21:00:00,
2013-08-12 21:43:00,58.0,-99.9,30.07,ESE,110,18.0,-999.0,-999,-99.99,,,-99.99,,2013-08-12 21:43:00,
2013-08-12 21:52:00,58.0,-99.9,30.07,ESE,110,18.0,-999.0,-999,-99.99,,,-99.99,,2013-08-12 21:52:00,
2013-08-12 22:00:00,59.0,-99.9,30.07,ESE,120,15.0,-999.0,-999,-99.99,,,-99.99,,2013-08-12 22:00:00,
2013-08-12 22:32:00,59.0,-99.9,30.07,ESE,120,15.0,-999.0,-999,-99.99,,,-99.99,,2013-08-12 22:32:00,
2013-08-12 22:43:00,59.0,-99.9,30.07,ESE,120,15.0,-999.0,-999,-99.99,,,-99.99,,2013-08-12 22:43:00,
2013-08-12 22:53:00,59.0,-99.9,30.07,ESE,120,15.0,-999.0,-999,-99.99,,,-99.99,,2013-08-12 22:53:00,
2013-08-12 23:00:00,58.0,-99.9,30.08,SSE,160,14.0,-999.0,-999,-99.99,,,-99.99,,2013-08-12 23:00:00,
2013-08-12 23:44:00,58.0,-99.9,30.08,SSE,160,14.0,-999.0,-999,-99.99,,,-99.99,,2013-08-12 23:44:00,
2013-08-12 23:54:00,58.0,-99.9,30.08,SSE,160,14.0,-999.0,-999,-99.99,,,-99.99,,2013-08-12 23:54:00,